GW0539 Weather Reports


time (UTC)temp
F
wind
direction
speed
knots
gust
knots
rain 1hr
in
rain 24hr
in
rain mn
in
humidity
%
barometer
mb
20260906223532 79 189 7.0 8.7 0.00 0.00 0.00 27 1024.2
20260906223031 79 227 7.0 12.2 0.00 0.00 0.00 28 1024.4
20260906222525 80 205 4.3 7.8 0.00 0.00 0.00 27 1024.5
20260906222023 81 300 3.5 9.6 0.00 0.00 0.00 27 1024.4
20260906221522 82 322 3.5 7.8 0.00 0.00 0.00 26 1024.5
20260906221018 83 209 4.3 7.8 0.00 0.00 0.00 26 1024.4
20260906220517 81 246 6.1 7.0 0.00 0.00 0.00 28 1024.6
20260906220013 80 102 2.6 7.0 0.00 0.00 0.00 27 1024.6
20260906215512 80 232 3.5 6.1 0.00 0.00 0.00 27 1024.7
20260906215010 80 233 7.8 8.7 0.00 0.00 0.00 26 1024.7
20260906214508 81 11 2.6 7.0 0.00 0.00 0.00 26 1025.0
20260906214004 82 214 4.3 6.1 0.00 0.00 0.00 25 1024.9
20260906213458 81 182 6.1 8.7 0.00 0.00 0.00 26 1024.9
20260906212956 84 316 3.5 7.0 0.00 0.00 0.00 28 1025.0
20260906212450 83 293 2.6 8.7 0.00 0.00 0.00 24 1025.0
20260906211945 80 356 0.9 6.1 0.00 0.00 0.00 26 1025.3
20260906211440 82 254 5.2 9.6 0.00 0.00 0.00 25 1025.3
20260906210935 83 214 5.2 9.6 0.00 0.00 0.00 24 1025.3
20260906210431 83 236 3.5 6.1 0.00 0.00 0.00 24 1025.1
20260906205924 83 180 7.0 8.7 0.00 0.00 0.00 24 1025.5
20260906205421 83 301 2.6 7.0 0.00 0.00 0.00 23 1025.3
20260906204917 82 291 6.1 8.7 0.00 0.00 0.00 24 1025.6
20260906204416 82 203 10.4 12.2 0.00 0.00 0.00 25 1025.5
20260906203915 82 175 7.0 13.9 0.00 0.00 0.00 24 1025.6
20260906203410 82 181 5.2 7.8 0.00 0.00 0.00 24 1025.5
20260906202908 82 188 7.0 8.7 0.00 0.00 0.00 25 1025.9
20260906202402 83 222 9.6 12.2 0.00 0.00 0.00 25 1025.6
20260906201901 82 46 3.5 6.1 0.00 0.00 0.00 25 1025.5
20260906201356 82 174 7.8 8.7 0.00 0.00 0.00 25 1025.8
20260906200851 82 177 6.1 7.8 0.00 0.00 0.00 26 1025.8
20260906200348 82 181 5.2 7.0 0.00 0.00 0.00 27 1026.0
20260906195842 81 216 7.8 11.3 0.00 0.00 0.00 27 1025.9
20260906195339 82 205 8.7 13.9 0.00 0.00 0.00 27 1025.9
20260906194834 82 259 4.3 7.8 0.00 0.00 0.00 28 1026.0
20260906194329 82 192 5.2 9.6 0.00 0.00 0.00 30 1025.9
20260906193819 82 173 5.2 13.0 0.00 0.00 0.00 28 1025.9
20260906193314 81 334 2.6 7.0 0.00 0.00 0.00 31 1026.0
20260906192809 82 168 7.0 12.2 0.00 0.00 0.00 29 1026.1
20260906192306 81 241 4.3 9.6 0.00 0.00 0.00 28 1026.1
20260906191803 81 224 7.8 8.7 0.00 0.00 0.00 30 1026.0
20260906191257 80 14 2.6 2.6 0.00 0.00 0.00 33 1026.1
20260906190752 78 354 0.9 1.7 0.00 0.00 0.00 32 1026.7
20260906190246 78 318 1.7 6.1 0.00 0.00 0.00 32 1026.7
20260906185745 79 310 2.6 6.1 0.00 0.00 0.00 33 1026.7
20260906185245 80 326 2.6 2.6 0.00 0.00 0.00 32 1026.7
20260906184739 79 21 4.3 7.0 0.00 0.00 0.00 32 1026.7
20260906184235 78 229 6.1 7.0 0.00 0.00 0.00 34 1026.8
20260906183730 78 309 3.5 5.2 0.00 0.00 0.00 34 1026.8
20260906183227 78 347 0.9 1.7 0.00 0.00 0.00 34 1026.9
20260906182726 79 199 4.3 6.1 0.00 0.00 0.00 33 1027.3
20260906182222 78 2 2.6 5.2 0.00 0.00 0.00 32 1027.3
20260906181717 78 304 3.5 9.6 0.00 0.00 0.00 32 1027.2
20260906181214 78 349 2.6 4.3 0.00 0.00 0.00 33 1027.2
20260906180713 77 13 1.7 4.3 0.00 0.00 0.00 34 1027.5
20260906180208 76 22 2.6 4.3 0.00 0.00 0.00 34 1027.5
20260906175706 77 72 5.2 6.1 0.00 0.00 0.00 35 1027.5
20260906175202 76 344 0.9 4.3 0.00 0.00 0.00 37 1027.9
20260906174700 76 357 0.9 5.2 0.00 0.00 0.00 36 1027.8
20260906174154 75 350 2.6 6.1 0.00 0.00 0.00 37 1028.2
20260906173650 75 339 0.9 7.0 0.00 0.00 0.00 35 1028.3
20260906173146 75 15 1.7 4.3 0.00 0.00 0.00 35 1028.3
20260906172645 75 317 2.6 5.2 0.00 0.00 0.00 34 1028.4
20260906172141 75 50 2.6 6.1 0.00 0.00 0.00 35 1028.6
20260906171640 75 309 3.5 5.2 0.00 0.00 0.00 36 1028.4
20260906171136 75 343 1.7 7.8 0.00 0.00 0.00 35 1028.7
20260906170632 75 220 7.0 7.8 0.00 0.00 0.00 37 1028.9
20260906170131 74 301 3.5 7.0 0.00 0.00 0.00 38 1028.9
20260906165628 73 352 0.9 2.6 0.00 0.00 0.00 40 1028.8
20260906165123 73 224 3.5 5.2 0.00 0.00 0.00 40 1029.1
20260906164621 72 348 0.9 1.7 0.00 0.00 0.00 43 1028.9
20260906164117 72 353 0.9 4.3 0.00 0.00 0.00 45 1028.9
20260906163613 71 337 1.7 4.3 0.00 0.00 0.00 46 1028.9
20260906163109 71 6 0.9 5.2 0.00 0.00 0.00 46 1029.2
20260906162606 71 43 1.7 2.6 0.00 0.00 0.00 48 1029.1
20260906162101 70 323 1.7 2.6 0.00 0.00 0.00 48 1029.2
20260906161555 70 225 4.3 5.2 0.00 0.00 0.00 47 1029.1
20260906161054 69 4 0.9 2.6 0.00 0.00 0.00 49 1028.9
20260906160553 68 12 1.7 2.6 0.00 0.00 0.00 50 1029.1
20260906160052 68 6 0.9 2.6 0.00 0.00 0.00 53 1028.9
20260906155550 67 16 1.7 2.6 0.00 0.00 0.00 53 1029.1
20260906155046 66 355 0.9 2.6 0.00 0.00 0.00 58 1029.1
20260906154541 65 358 0.9 2.6 0.00 0.00 0.00 58 1029.1
20260906154040 64 355 0.0 1.7 0.00 0.00 0.00 59 1029.2
20260906153538 64 357 0.9 1.7 0.00 0.00 0.00 62 1029.2
20260906153034 62 330 1.7 4.3 0.00 0.00 0.00 67 1029.1
20260906152533 61 350 0.0 1.7 0.00 0.00 0.00 68 1029.2
20260906152033 60 349 0.0 1.7 0.00 0.00 0.00 70 1029.2
20260906151528 60 352 0.9 0.9 0.00 0.00 0.00 74 1029.3
20260906151024 58 356 0.0 0.0 0.00 0.00 0.00 76 1029.2
20260906150519 57 355 0.0 0.9 0.00 0.00 0.00 80 1029.3
20260906150014 56 357 0.0 0.9 0.00 0.00 0.00 82 1029.3
20260906145513 55 351 0.9 1.7 0.00 0.00 0.00 82 1029.5
20260906145009 54 348 0.0 0.9 0.00 0.00 0.00 84 1029.1
20260906144503 53 353 0.0 0.0 0.00 0.00 0.00 85 1029.3
20260906143958 52 359 0.0 0.9 0.00 0.00 0.00 86 1029.3
20260906143453 52 356 0.0 0.9 0.00 0.00 0.00 86 1029.6
20260906142949 51 351 0.0 0.9 0.00 0.00 0.00 87 1029.5
20260906142449 50 353 0.9 1.7 0.00 0.00 0.00 88 1029.5
20260906141943 50 351 0.9 1.7 0.00 0.00 0.00 90 1029.6
20260906141437 49 345 0.9 1.7 0.00 0.00 0.00 90 1029.7
20260906140932 49 353 0.0 0.0 0.00 0.00 0.00 91 1029.7
20260906140427 48 354 0.0 0.0 0.00 0.00 0.00 92 1029.7
20260906135925 47 353 0.0 0.0 0.00 0.00 0.00 95 1029.7
20260906135424 46 353 0.0 0.9 0.00 0.00 0.00 96 1029.6
20260906134920 45 353 0.9 1.7 0.00 0.00 0.00 97 1029.7
20260906134415 44 356 0.9 1.7 0.00 0.00 0.00 97 1029.6
20260906133910 44 358 0.9 1.7 0.00 0.00 0.00 99 1029.7
20260906133406 44 354 0.0 0.0 0.00 0.00 0.00 99 1029.6
20260906132901 43 350 0.0 0.0 0.00 0.00 0.00 99 1029.3
20260906132356 42 348 0.0 0.9 0.00 0.00 0.00 99 1029.3
20260906131852 41 347 0.0 0.9 0.00 0.00 0.00 99 1029.5
20260906131347 41 350 0.0 0.9 0.00 0.00 0.00 99 1029.5
20260906130843 41 351 0.0 0.0 0.00 0.00 0.00 99 1029.3
20260906130342 41 351 0.0 0.9 0.00 0.00 0.00 99 1029.3
20260906125841 41 348 0.9 0.9 0.00 0.00 0.00 99 1029.2
20260906125338 41 344 0.9 0.9 0.00 0.00 0.00 99 1029.3
20260906124833 41 318 2.6 2.6 0.00 0.00 0.00 99 1029.5
20260906124330 41 338 1.7 1.7 0.00 0.00 0.00 99 1029.3
20260906123829 41 355 0.9 0.9 0.00 0.00 0.00 99 1029.2
20260906123324 41 351 0.0 0.9 0.00 0.00 0.00 99 1029.3
20260906122823 41 347 0.9 0.9 0.00 0.00 0.00 99 1029.5
20260906122318 41 351 0.0 0.9 0.00 0.00 0.00 99 1029.2
20260906121815 41 337 1.7 1.7 0.00 0.00 0.00 99 1029.2
20260906121311 41 326 1.7 1.7 0.00 0.00 0.00 99 1029.1
20260906120806 42 344 0.9 0.9 0.00 0.00 0.00 99 1029.1
20260906120257 42 353 0.0 0.0 0.00 0.00 0.00 99 1029.5
20260906115752 42 350 0.0 0.0 0.00 0.00 0.00 99 1029.2
20260906115242 42 350 0.0 0.9 0.00 0.00 0.00 99 1029.3
20260906114741 42 329 1.7 1.7 0.00 0.00 0.00 99 1029.3
20260906114237 42 346 0.9 0.9 0.00 0.00 0.00 99 1029.1
20260906113732 42 339 0.9 0.9 0.00 0.00 0.00 99 1029.3
20260906113231 42 350 0.0 0.0 0.00 0.00 0.00 99 1029.3
20260906112731 42 350 0.9 0.9 0.00 0.00 0.00 99 1029.3
20260906112228 43 344 0.9 0.9 0.00 0.00 0.00 99 1029.3
20260906111727 43 353 0.0 0.0 0.00 0.00 0.00 99 1029.1
20260906111221 42 350 0.0 0.9 0.00 0.00 0.00 99 1029.2
20260906110717 43 337 1.7 1.7 0.00 0.00 0.00 98 1029.1
20260906110212 43 348 0.9 0.9 0.00 0.00 0.00 98 1029.2
20260906105711 43 348 0.0 0.0 0.00 0.00 0.00 98 1029.2
20260906105207 44 353 0.0 0.0 0.00 0.00 0.00 98 1029.1
20260906104707 44 353 0.0 0.0 0.00 0.00 0.00 98 1028.9
20260906104201 44 353 0.0 0.0 0.00 0.00 0.00 98 1028.9
20260906103658 43 350 0.0 0.0 0.00 0.00 0.00 97 1028.8
20260906103154 44 350 0.0 0.0 0.00 0.00 0.00 97 1028.8
20260906102648 44 351 0.0 0.0 0.00 0.00 0.00 97 1028.7
20260906102143 44 348 0.0 0.0 0.00 0.00 0.00 97 1028.9
20260906101642 44 348 0.9 0.9 0.00 0.00 0.00 97 1028.9
20260906101137 44 356 0.9 0.9 0.00 0.00 0.00 97 1028.9
20260906100633 44 350 0.0 0.0 0.00 0.00 0.00 97 1028.8
20260906100127 44 348 0.0 0.9 0.00 0.00 0.00 97 1028.8
20260906095622 44 346 0.0 0.9 0.00 0.00 0.00 97 1029.1
20260906095118 44 329 1.7 1.7 0.00 0.00 0.00 97 1028.9
20260906094616 44 351 0.9 1.7 0.00 0.00 0.00 97 1028.9
20260906094112 44 351 0.0 0.0 0.00 0.00 0.00 97 1028.9
20260906093608 44 351 0.0 0.0 0.00 0.00 0.00 97 1028.9
20260906093102 44 349 0.0 0.0 0.00 0.00 0.00 97 1028.9
20260906092552 44 344 0.9 0.9 0.00 0.00 0.00 98 1029.1
20260906092047 44 340 0.9 0.9 0.00 0.00 0.00 97 1028.8
20260906091543 44 346 0.9 0.9 0.00 0.00 0.00 97 1028.7
20260906091039 44 347 0.9 0.9 0.00 0.00 0.00 97 1028.9
20260906090539 45 347 0.0 0.0 0.00 0.00 0.00 97 1029.1
20260906090034 45 349 0.0 0.0 0.00 0.00 0.00 97 1029.1
20260906085533 45 349 0.0 0.0 0.00 0.00 0.00 97 1028.8
20260906085032 45 347 0.0 0.0 0.00 0.00 0.00 96 1028.9
20260906084528 45 354 0.0 0.9 0.00 0.00 0.00 97 1028.7
20260906084026 45 347 0.0 1.7 0.00 0.00 0.00 96 1029.1
20260906083522 46 351 0.0 0.0 0.00 0.00 0.00 96 1028.9
20260906083022 46 350 0.0 0.0 0.00 0.00 0.00 96 1028.8
20260906082517 46 349 0.0 0.0 0.00 0.00 0.00 96 1028.9
20260906082013 46 349 0.0 0.0 0.00 0.00 0.00 96 1028.9
20260906081508 46 349 0.0 0.0 0.00 0.00 0.00 96 1028.7
20260906081004 46 348 0.0 0.9 0.00 0.00 0.00 95 1029.1
20260906080500 46 351 0.0 0.9 0.00 0.00 0.00 95 1028.9
20260906075955 46 343 0.9 1.7 0.00 0.00 0.00 95 1028.9
20260906075450 46 348 0.0 0.9 0.00 0.00 0.00 95 1029.1
20260906074944 46 351 0.9 0.9 0.00 0.00 0.00 94 1029.2
20260906074439 47 352 0.0 0.0 0.00 0.00 0.00 94 1029.1
20260906073937 47 349 0.0 0.0 0.00 0.00 0.00 94 1029.1
20260906073432 47 349 0.0 0.0 0.00 0.00 0.00 94 1028.9
20260906072929 47 349 0.0 0.0 0.00 0.00 0.00 94 1029.1
20260906072424 47 351 0.0 0.0 0.00 0.00 0.00 94 1029.1
20260906071920 47 354 0.9 0.9 0.00 0.00 0.00 94 1029.2
20260906071415 47 352 0.0 0.0 0.00 0.00 0.00 93 1028.9
20260906070912 47 351 0.0 0.9 0.00 0.00 0.00 93 1029.2
20260906070407 48 348 0.0 0.9 0.00 0.00 0.00 93 1029.1
20260906065902 48 349 0.0 0.9 0.00 0.00 0.00 92 1029.2
20260906065355 49 354 0.0 0.0 0.00 0.00 0.00 91 1028.9
20260906064852 49 351 0.0 0.0 0.00 0.00 0.00 90 1028.9
20260906064343 49 351 0.0 0.0 0.00 0.00 0.00 90 1028.9
20260906063842 49 351 0.0 0.9 0.00 0.00 0.00 89 1029.1
20260906063338 49 354 0.9 1.7 0.00 0.00 0.00 90 1028.7
20260906062833 49 347 1.7 1.7 0.00 0.00 0.00 90 1028.8
20260906062332 49 349 0.0 1.7 0.00 0.00 0.00 90 1028.7
20260906061827 50 345 0.0 0.0 0.00 0.00 0.00 89 1028.9
20260906061324 50 333 1.7 1.7 0.00 0.00 0.00 88 1029.1
20260906060818 50 337 1.7 1.7 0.00 0.00 0.00 89 1029.1
20260906060317 50 337 1.7 1.7 0.00 0.00 0.00 90 1029.1
20260906055812 50 344 0.9 1.7 0.00 0.18 0.18 91 1028.9
20260906055307 50 351 0.9 1.7 0.00 0.18 0.18 91 1028.9
20260906054802 50 344 0.9 1.7 0.00 0.18 0.18 91 1029.1
20260906054257 50 352 0.9 1.7 0.00 0.18 0.18 91 1028.9
20260906053748 50 351 0.9 0.9 0.00 0.18 0.18 91 1028.9
20260906053244 50 349 0.0 0.9 0.00 0.18 0.18 92 1029.1
20260906052739 50 343 0.9 1.7 0.00 0.18 0.18 92 1029.1
20260906052235 50 335 1.7 1.7 0.00 0.18 0.18 92 1029.2
20260906051732 51 348 0.9 1.7 0.00 0.18 0.18 90 1029.1
20260906051231 51 354 0.0 0.9 0.00 0.18 0.18 89 1029.1
20260906050727 51 359 0.9 1.7 0.00 0.18 0.18 89 1029.1
20260906050222 52 348 0.0 0.9 0.00 0.18 0.18 88 1029.1
20260906045720 51 354 0.0 0.0 0.00 0.18 0.18 87 1028.9
20260906045216 51 350 0.9 0.9 0.00 0.18 0.18 88 1028.8
20260906044711 52 350 0.0 0.9 0.00 0.18 0.18 88 1028.8
20260906044206 52 350 0.9 0.9 0.00 0.18 0.18 88 1028.9
20260906043703 52 356 0.9 0.9 0.00 0.18 0.18 88 1028.9
20260906043158 53 348 0.9 0.9 0.00 0.18 0.18 88 1029.1
20260906042657 53 352 0.0 0.9 0.00 0.18 0.18 87 1028.9
20260906042157 53 351 0.0 0.9 0.00 0.18 0.18 86 1028.9
20260906041653 54 354 0.0 0.9 0.00 0.18 0.18 86 1028.8
20260906041148 54 354 0.0 0.9 0.00 0.18 0.18 86 1028.8
20260906040643 53 357 0.9 0.9 0.00 0.18 0.18 87 1028.7
20260906040139 53 354 0.0 0.9 0.00 0.18 0.18 86 1028.7
20260906035633 53 354 0.0 0.0 0.00 0.18 0.18 85 1028.7
20260906035129 54 354 0.0 0.9 0.00 0.18 0.18 86 1028.9
20260906034624 55 340 0.9 1.7 0.00 0.18 0.18 86 1028.8
20260906034118 54 354 0.0 0.0 0.00 0.18 0.18 85 1028.7
20260906033614 55 350 0.0 0.9 0.00 0.18 0.18 84 1028.6
20260906033109 55 329 1.7 1.7 0.00 0.18 0.18 82 1028.7
20260906032606 56 355 0.0 0.9 0.00 0.18 0.18 79 1028.7
20260906032105 56 359 0.9 1.7 0.00 0.18 0.18 79 1028.6
20260906031601 56 355 0.9 0.9 0.00 0.18 0.18 80 1028.6
20260906031056 57 351 0.9 0.9 0.00 0.18 0.18 82 1028.6
20260906030555 56 355 0.9 0.9 0.00 0.18 0.18 82 1028.2
20260906030050 57 346 0.0 1.7 0.00 0.18 0.18 84 1028.2
20260906025550 58 355 0.9 0.9 0.00 0.18 0.18 83 1028.3
20260906025048 57 358 0.9 0.9 0.00 0.18 0.18 83 1028.1
20260906024544 57 345 0.0 0.9 0.00 0.18 0.18 83 1028.2
20260906024043 58 342 0.9 1.7 0.00 0.18 0.18 83 1027.9
20260906023540 59 356 0.9 0.9 0.00 0.18 0.18 80 1027.8
20260906023034 59 354 0.0 0.9 0.00 0.18 0.18 81 1027.9
20260906022530 60 348 0.9 0.9 0.00 0.18 0.18 79 1027.8
20260906022025 60 355 0.0 0.9 0.00 0.18 0.18 78 1027.8
20260906021520 60 349 0.0 0.9 0.00 0.18 0.18 79 1027.7
20260906021014 61 355 0.9 1.7 0.00 0.18 0.18 72 1027.4
20260906020514 61 355 0.0 0.9 0.00 0.18 0.18 74 1027.7
20260906020013 60 359 0.9 0.9 0.00 0.18 0.18 79 1027.3
20260906015512 60 354 0.0 0.9 0.00 0.18 0.18 79 1027.5
20260906015007 60 349 0.0 0.9 0.00 0.18 0.18 78 1027.3
20260906014501 61 353 0.0 0.0 0.00 0.18 0.18 81 1027.3
20260906013957 62 358 0.9 0.9 0.00 0.18 0.18 77 1027.3
20260906013453 62 345 0.9 0.9 0.00 0.18 0.18 78 1027.3
20260906012949 62 354 0.0 0.0 0.00 0.18 0.18 80 1027.3
20260906012448 62 348 0.9 1.7 0.00 0.18 0.18 78 1027.2
20260906011948 62 356 0.9 1.7 0.00 0.18 0.18 80 1027.0
20260906011444 62 354 0.0 0.9 0.00 0.18 0.18 81 1027.2
20260906010939 62 351 0.0 0.9 0.00 0.18 0.18 82 1027.2
20260906010434 65 349 0.0 0.9 0.00 0.18 0.18 79 1027.0
20260906005930 67 345 0.9 0.9 0.00 0.18 0.18 73 1027.0
20260906005430 69 349 0.0 0.0 0.00 0.18 0.18 67 1027.0
20260906004928 70 345 0.9 0.9 0.00 0.18 0.18 66 1027.2
20260906004422 71 347 0.9 0.9 0.00 0.18 0.18 60 1027.2
20260906003918 70 344 0.9 0.9 0.00 0.18 0.18 64 1027.3
20260906003413 72 347 0.9 1.7 0.00 0.18 0.18 64 1027.3
20260906002909 72 349 0.9 1.7 0.00 0.18 0.18 60 1027.2
20260906002409 71 350 0.9 1.7 0.00 0.18 0.18 60 1027.2
20260906001904 69 347 0.0 0.9 0.00 0.18 0.18 66 1027.0
20260906001400 68 342 1.7 2.6 0.00 0.18 0.18 68 1026.9
20260906000900 70 348 0.9 0.9 0.00 0.18 0.18 61 1026.9
20260906000400 71 348 0.9 0.9 0.00 0.18 0.18 57 1027.2
20260905235855 71 7 1.7 4.3 0.00 0.18 0.18 47 1027.0
20260905235349 71 11 0.9 6.1 0.00 0.18 0.18 58 1026.9
20260905234844 69 17 3.5 4.3 0.00 0.18 0.18 62 1027.2
20260905234340 69 8 1.7 2.6 0.00 0.18 0.18 66 1027.2
20260905233835 68 14 1.7 2.6 0.00 0.18 0.18 67 1027.2
20260905233330 69 2 3.5 6.1 0.00 0.18 0.18 69 1027.0
20260905232829 69 19 3.5 4.3 0.00 0.18 0.18 67 1027.3
20260905232325 68 346 1.7 2.6 0.00 0.18 0.18 72 1027.2
20260905231821 67 341 2.6 2.6 0.00 0.18 0.18 73 1027.2
20260905231316 67 346 1.7 1.7 0.00 0.18 0.18 80 1027.2
20260905230812 65 342 0.9 1.7 0.00 0.18 0.18 84 1026.9
20260905230310 64 344 0.9 1.7 0.00 0.18 0.18 79 1026.9
20260905225809 63 347 0.0 1.7 0.00 0.18 0.18 76 1027.0
20260905225306 63 349 0.9 2.6 0.00 0.18 0.18 80 1027.0
20260905224804 64 327 2.6 2.6 0.00 0.18 0.18 77 1026.9
20260905224300 64 346 0.0 2.6 0.00 0.18 0.18 71 1027.0
20260905223755 63 52 3.5 6.1 0.00 0.18 0.18 71 1026.7